Погода в Амдерме

Погода в Амдерме : погода сейчас, прогноз погоды и архив. Всё, что Вы хотите узнать о погоде в Амдерме!

Хотите узнать прогноз погоды в Амдерме? Тогда Вам сюда: Погода в Амдерме

Поиск расширенной информации на нашем сайте:

Другие новости

Новости СМИ2

Главная страница сайта

Новости сайта

03.07.2017

Напоминаем, что на нашем специализированном сайте Метеоцентр.Азия вы можете получить высокодетализированные автоматические прогнозы погоды по пунктам России, СНГ и мира в авиационном формате (включающие направление и скорость ветра, видимость, явления погоды, количество и форму облачности, нижнюю и верхнюю границу облачности).

Рекомендуем: россельхозбанк онлайн заявка на кредит наличными оформить

Погода в Амдерме - сегодня

Время (UTC), дата Ветер
(°,м/с) 
Видим.   Явления Облачность Т
(°С)
Тd
(°С)
f(%) Тe
(°С)
Pmin
(гПа)
dP
(гПа)
Po
(мм)
O2
(г/м3)
Тmin Tmax R s Состояние
почвы
18 21.07.17 120 (ЮВ) 10 км    8/5 300 м средняя, верхняя 
[Sc|Ac trans|Cc]
+18.8 +16 84 +29  1017.5  0.4  759  283           
21 21.07.17 060 (СВ) 10 км  в посл. час ливневой дождь  9/9 300 м кучево-дожд., средняя 
[Cb cap|Ac trans]
+17 +15.4 90 +27  1017.6  759  285           
00 22.07.17 050 (СВ) 10 км    5/1 600 м верхняя 
[Cu hum|Ci fib]
+16.6 +15.6 94 +27  1018.3  0.7  759  285           
03 22.07.17 070 (В) 10 км    8/0 средняя, верхняя 
[Ac trans|Ci fib]
+17.6 +15.4 87 +27  1018.9  0.6  760  284  +16.2    0.0    сухая 
06 22.07.17 070 (В) 10 км    8/0 верхняя 
[Ci fib]
+18.1 +14.8 81 +26  1019.5  0.6  760  284           
09 22.07.17 070 (В) 10 км    8/0 верхняя 
[Ci fib]
+18.1 +14.9 82 +26  1019.7  0.2  760  284           
12 22.07.17 050 (СВ) 4000 м  дымка  10/10 300 м 
[St]
+15.7 +14.5 93 +22  1020.1  0.4  761  287           
15 22.07.17 060 (СВ) 1000 м  дымка  10/10 200 м 
[St]
+14.3 +13.7 96 +20  1020.3  0.1  761  288    +18.5       
18 22.07.17 070 (В) 0500 м  туман  ?/?  
+13.5 +13.5 100 +19  1020.8  0.5  761  289           
21 22.07.17 060 (СВ) 4000 м  дымка{туман}  10/10 300 м 
[St]
+13.3 +12.8 97 +18  1020.5  -0.3  761  290           
00 23.07.17 050 (СВ) 0200 м  слаб. морось{туман}  ?/?  
+13 +13 100 +18  1020.6  0.1  761  290           
03 23.07.17 080 (В) 4000 м  в посл. час туман{морось}  10/10 300 м 
[St]
+13.1 +12.8 98 +17  1020.6  761  290  +12.9    0.3    влажная 
06 23.07.17 070 (В) 4000 м  дымка{морось, туман}  10/10 300 м 
[Sc]
+13.4 +12.7 96 +17  1020.4  -0.2  761  290           
09 23.07.17 060 (СВ) 4000 м  дымка  9/9 300 м 
[Sc]
+13.8 +12.4 91 +17  1019.9  -0.5  760  289           
12 23.07.17 050 (СВ) 2000 м  дымка  10/10 300 м 
[St]
+13.3 +12.3 94 +17  1019.3  -0.6  760  290           
15 23.07.17 060 (СВ) 0500 м  туман  ?/?  
+12.3 +12.3 100 +15  1018.3  -1.1  759  290    +14       
18 23.07.17 070 (В) 0500 м  туман{морось}  ?/?  
+11.9 +11.9 100 +15  1018  -0.2  759  291           
21 23.07.17 070 (В) 0200 м  слаб. морось{туман}  ?/?  
+11.9 +11.9 100 +15  1017  -1  758  290           
00 24.07.17 070 (В) 0200 м  слаб. морось{туман}  ?/?  
+11.8 +11.8 100 +14  1016.3  -0.6  758  290           
03 24.07.17 070 (В) 2000 м  в посл. час туман{морось}  10/10 300 м 
[St]
+12.7 +12.4 98 +17  1016  -0.3  757  289  +11.6    0.6    влажная 
06 24.07.17 040 (СВ) 4000 м  дымка{морось, туман}  10/10 300 м 
[St]
+13.7 +13.4 98 +20  1015.5  -0.4  757  288           
09 24.07.17 030 (СВ) 1000 м  дымка  10/10 300 м 
[St]
+13.7 +13 96 +19  1015.3  -0.3  757  288           
12 24.07.17 050 (СВ) 2000 м  дымка  10/10 300 м 
[St]
+13.5 +12.7 95 +18  1015.4  0.2  757  288           
15 24.07.17 050 (СВ) 4000 м  в посл. час морось  10/10 300 м 
[St]
+12.6 +10.8 89 +14  1015.4  -0.1  757  290    +14.5  0.0     
18 24.07.17 040 (СВ) 10 км  {морось}  10/10 300 м 
[Sc]
+11.6 +10 90 +12  1015.9  0.4  757  291           
Время (UTC), дата Ветер
(°,м/с) 
Видим.   Явления Облачность Т
(°С)
Тd
(°С)
f(%) Тe
(°С)
Pmin
(гПа)
dP
(гПа)
Po
(мм)
O2
(г/м3)
Тmin Tmax R s Состояние
почвы

Для получения пояснительной информации подведите курсор к названию столбца.

ПОГОДА в Амдерме - архив

Всё, что Вы хотите узнать о погоде в Амдерме - удобно и подробно!

Выберите нужную дату (начиная с 1 января 2015* года) и нажмите кнопку "Найти".
Будут отображены архивные сводки погоды по пункту Амдерма, начиная с указанной даты.


Отображать данные в формате CSV (для использования в таблицах Excel)


Внимание! Наш архив погоды предназначен исключительно для личного некоммерческого использования в познавательных целях. Если Вам необходимы официальные справки о состоянии погоды (для производственных, юридических, коммерческих и т.п. целей), обращайтесь в органы Росгидромета.

*Примечание: данная дата относится к архиву по метеостанциям СССР (Россия, СНГ, Балтия).
Архив по метеостанциям Зарубежной Европы и Азии (кроме Китая) хранится 10 дней, по другим регионам земного шара (Китай, Африка, Америка, Австралия, Океания) - 1 день.

Амдерма - район местоположения метеостанции


Название, широта, долгота, высота метеостанции:
Амдерма 69.8°ш. 61.7°д. 49 м над ур. моря [Российская Федерация]

Дополнительная информация

В oтличие oт бoльшинства пoгoдных сайтoв мы публикуем пoдрoбную метеoинфoрмацию в детальнoм прoфессиoнальнoм фoрмате.

Характеристики температуры и влажнoсти вoздуха измеряются на высoте 2 м в тени вдали oт зданий и деревьев.
Скoрoсть ветра измеряется на высoте 10 м (на урoвне рoста челoвека скoрoсть ветра ниже в 1.5-2 раза). Если метеoстанция нахoдится в гoрoде или в лесу, тo скoрoсть ветра занижена на 2-4 м/с пo сравнению с oткрытым местoм. Скoрoсть ветра над акватoриями крупных рек и oзёр, а также на вершинах хoлмoв на 2-5 м/с выше, чем в oбычных услoвиях.
Атмoсфернoе давление в разных тoчках местнoсти мoжет значительнo oтличаться oт давления на метеoстанции, в зависимoсти oт услoвий рельефа (при пoдъёме на 10 м давление пoнижается примернo на 1 мм рт.ст.).